CW2235 Kristiansand NO current weather conditions

sailwx.info

Wind from 032 at 3 knots gusting 6

Air temperature 2.8° C
Dewpoint 2.2° C

Last reported at 2019-Dec-12 17:55 UTC.
Time now 2019-Dec-12 18:55 UTC

Location: N 58°05' E 008°01'.
View on Google Maps.

See reports from other nearby stations

  
Tides and Currents Weather Stations Pressure Air Temp Water Temp Dewpoint Dewpoint Depression Visibility Wind Speed Wind Dir Waves Ship Positions
date/time (UTC)wind fromknots sea level pressurealtimeterstation pressurevisibilityair tempwater tempwave heightnotes
2019-Dec-12 17:55 032 3 gusting 6 2.8
2019-Dec-12 17:50 031 5 gusting 6 2.8
2019-Dec-12 17:45 014 4 gusting 6 2.8
2019-Dec-12 17:40 006 2 gusting 5 2.8
2019-Dec-12 17:35 013 4 gusting 6 2.8
2019-Dec-12 17:30 016 2 gusting 6 2.8
2019-Dec-12 17:25 012 1 gusting 4 3.3
2019-Dec-12 17:20 079 3.3
2019-Dec-12 17:15 079 1 gusting 2 3.3
2019-Dec-12 17:10 358 2 gusting 2 3.3
2019-Dec-12 17:05 357 1 gusting 4 3.3
2019-Dec-12 17:00 358 4 gusting 5 3.3
2019-Dec-12 16:55 031 2 gusting 5 3.3
2019-Dec-12 16:50 015 2 gusting 4 3.3
2019-Dec-12 16:45 016 1 gusting 1 3.3
2019-Dec-12 16:40 016 1 gusting 2 3.3
2019-Dec-12 16:35 016 1 gusting 2 3.3
2019-Dec-12 16:30 015 2 gusting 5 3.3
2019-Dec-12 16:25 012 2 gusting 5 3.3
2019-Dec-12 16:20 030 2 gusting 4 3.3
2019-Dec-12 16:15 030 2 gusting 5 3.3
2019-Dec-12 16:10 030 2 gusting 5 3.3
2019-Dec-12 16:05 029 3 gusting 5 3.3
2019-Dec-12 16:00 030 5 gusting 6 3.3
2019-Dec-12 15:55 016 2 gusting 6 3.3
2019-Dec-12 15:50 351 3 gusting 5 3.9
2019-Dec-12 15:45 322 3.9
2019-Dec-12 15:40 322 3.9
2019-Dec-12 15:35 322 0 gusting 2 3.9
2019-Dec-12 15:30 322 4.4
2019-Dec-12 15:25 322 3.9
2019-Dec-12 15:20 322 3.9
2019-Dec-12 15:15 322 3.9
2019-Dec-12 15:10 322 3.9
2019-Dec-12 15:05 322 3.9
2019-Dec-12 15:00 322 3.9
2019-Dec-12 14:55 322 3.9
2019-Dec-12 14:50 322 3.9
2019-Dec-12 14:45 322 3.9
2019-Dec-12 14:40 322 3.9
2019-Dec-12 14:35 322 3.9
2019-Dec-12 14:30 322 4.4
2019-Dec-12 14:25 322 4.4
2019-Dec-12 14:20 322 4.4
2019-Dec-12 14:15 322 4.4
2019-Dec-12 14:10 322 0 gusting 2 4.4
2019-Dec-12 14:05 322 0 gusting 1 4.4
2019-Dec-12 14:00 322 1 gusting 4 4.4
2019-Dec-12 13:55 345 2 gusting 5 4.4
2019-Dec-12 13:50 344 1 gusting 2 4.4
2019-Dec-12 13:45 344 0 gusting 2 4.4
2019-Dec-12 13:40 348 2 gusting 2 4.4
2019-Dec-12 13:35 328 0 gusting 2 5.0
2019-Dec-12 13:30 328 5.0
2019-Dec-12 13:25 328 5.0
2019-Dec-12 13:20 328 0 gusting 2 5.0
2019-Dec-12 13:15 323 1 gusting 2 5.0
2019-Dec-12 13:10 317 0 gusting 2 5.0
2019-Dec-12 13:05 318 0 gusting 4 5.0
2019-Dec-12 13:00 295 0 gusting 8 5.6
2019-Dec-12 12:55 028 4 gusting 8 5.6
2019-Dec-12 12:50 006 5 gusting 10 5.6
2019-Dec-12 12:45 028 7 gusting 13 5.6
2019-Dec-12 12:40 018 8 gusting 17 5.6
2019-Dec-12 12:35 031 11 gusting 17 5.6
2019-Dec-12 12:30 031 11 gusting 17 5.6
2019-Dec-12 12:25 043 11 gusting 17 5.6
2019-Dec-12 12:20 158 9 gusting 18 5.6
2019-Dec-12 12:15 032 12 gusting 17 5.6
2019-Dec-12 12:10 036 11 gusting 17 5.6
2019-Dec-12 12:05 048 10 gusting 17 5.6
2019-Dec-12 12:00 040 10 gusting 15 5.6
2019-Dec-12 11:55 065 9 gusting 14 5.6
2019-Dec-12 11:50 030 10 gusting 18 5.6
2019-Dec-12 11:45 044 9 gusting 15 5.6
2019-Dec-12 11:40 040 9 gusting 14 5.6
2019-Dec-12 11:35 030 10 gusting 14 5.6
2019-Dec-12 11:30 033 9 gusting 14 5.0
2019-Dec-12 11:25 187 6 gusting 10 5.0
2019-Dec-12 11:20 206 5 gusting 8 5.0
2019-Dec-12 11:15 212 5 gusting 8 5.0
2019-Dec-12 11:10 028 6 gusting 11 5.0
2019-Dec-12 11:05 030 7 gusting 12 5.0
2019-Dec-12 11:00 074 7 gusting 10 5.0
2019-Dec-12 10:55 080 8 gusting 13 5.0
2019-Dec-12 10:50 033 7 gusting 13 5.0
2019-Dec-12 10:45 153 11 gusting 18 5.0
2019-Dec-12 10:40 059 12 gusting 17 5.0
2019-Dec-12 10:35 033 9 gusting 14 5.0
2019-Dec-12 10:30 037 9 gusting 15 5.0
2019-Dec-12 10:25 073 10 gusting 14 5.0
2019-Dec-12 10:20 031 11 gusting 18 5.0
2019-Dec-12 10:15 152 12 gusting 17 5.0
2019-Dec-12 10:10 030 9 gusting 17 5.6
2019-Dec-12 10:05 084 11 gusting 18 5.6
2019-Dec-12 10:00 074 10 gusting 13 5.6
2019-Dec-12 09:55 132 10 gusting 15 5.6
2019-Dec-12 09:50 093 11 gusting 18 5.6
2019-Dec-12 09:45 067 9 gusting 13 5.6
2019-Dec-12 09:40 186 5 gusting 6 5.6
2019-Dec-12 09:35 029 2 gusting 4 5.6
2019-Dec-12 09:30 222 1 gusting 2 5.6
2019-Dec-12 09:25 216 0 gusting 2 5.6
2019-Dec-12 09:20 216 1 gusting 2 5.6
2019-Dec-12 09:15 216 0 gusting 2 5.6
2019-Dec-12 09:10 216 1 gusting 2 5.6
2019-Dec-12 09:05 255 1 gusting 5 5.6
2019-Dec-12 09:00 285 3 gusting 10 5.6
2019-Dec-12 08:55 326 6 gusting 8 5.6
2019-Dec-12 08:50 317 6 gusting 11 5.6
2019-Dec-12 08:45 326 4 gusting 10 6.1
2019-Dec-12 08:40 007 3 gusting 10 6.7
2019-Dec-12 08:35 357 5 gusting 12 6.7
2019-Dec-12 08:30 024 9 gusting 17 6.7
2019-Dec-12 08:25 026 4 gusting 10 6.7
2019-Dec-12 08:20 029 6 gusting 13 6.7
2019-Dec-12 08:15 014 7 gusting 15 6.7
2019-Dec-12 08:10 026 7 gusting 13 6.7
2019-Dec-12 08:05 022 8 gusting 13 6.7
2019-Dec-12 08:00 200 9 gusting 14 6.7
2019-Dec-12 07:55 034 6 gusting 15 6.7
2019-Dec-12 07:50 033 8 gusting 17 6.7
2019-Dec-12 07:45 031 10 gusting 17 6.7
2019-Dec-12 07:40 009 10 gusting 18 7.2
2019-Dec-12 07:35 205 10 gusting 18 7.2
2019-Dec-12 07:30 034 9 gusting 18 7.2
2019-Dec-12 07:25 194 6 gusting 13 6.7
2019-Dec-12 07:20 029 7 gusting 13 6.7
2019-Dec-12 07:10 034 7 gusting 13 6.7
2019-Dec-12 07:05 037 7 gusting 13 6.7
2019-Dec-12 07:00 017 7 gusting 13 6.7
2019-Dec-12 06:55 018 5 gusting 13 6.7
2019-Dec-12 06:50 029 8 gusting 14 6.7
2019-Dec-12 06:45 029 7 gusting 13 6.1
2019-Dec-12 06:40 243 6 gusting 13 6.1
2019-Dec-12 06:35 022 5 gusting 10 6.1
2019-Dec-12 06:30 022 4 gusting 10 6.1
2019-Dec-12 06:25 024 6 gusting 10 6.1
2019-Dec-12 06:20 021 6 gusting 10 6.1
2019-Dec-12 06:15 028 6 gusting 11 5.6
2019-Dec-12 06:10 030 8 gusting 14 5.6
2019-Dec-12 06:05 028 8 gusting 14 5.6
2019-Dec-12 06:00 001 9 gusting 17 5.6
2019-Dec-12 05:55 018 10 gusting 18 5.6
2019-Dec-12 05:50 027 6 gusting 14 6.1
2019-Dec-12 05:45 010 7 gusting 17 5.6
2019-Dec-12 05:40 304 4 gusting 13 5.6
2019-Dec-12 05:35 026 8 gusting 14 5.6
2019-Dec-12 05:30 049 10 gusting 17 5.6
2019-Dec-12 05:25 337 0 gusting 4 5.6
2019-Dec-12 05:20 021 0 gusting 2 5.6
2019-Dec-12 05:15 321 6.1
2019-Dec-12 05:10 274 1 gusting 6 6.1
2019-Dec-12 05:05 311 2 gusting 8 6.1
2019-Dec-12 05:00 312 4 gusting 15 6.7
2019-Dec-12 04:55 297 6 gusting 10 7.2
2019-Dec-12 04:50 019 5 gusting 10 7.2
2019-Dec-12 04:45 017 6 gusting 14 7.2
2019-Dec-12 04:40 004 5 gusting 10 7.2
2019-Dec-12 04:35 267 6 gusting 13 7.2
2019-Dec-12 04:30 013 6 gusting 10 7.2
2019-Dec-12 04:25 018 7 gusting 12 7.2
2019-Dec-12 04:20 023 9 gusting 13 7.2
2019-Dec-12 04:15 349 8 gusting 14 7.2
2019-Dec-12 04:10 027 8 gusting 14 7.2
2019-Dec-12 04:05 027 11 gusting 19 7.2
2019-Dec-12 04:00 029 10 gusting 19 7.2
2019-Dec-12 03:55 022 10 gusting 18 7.2
2019-Dec-12 03:50 296 11 gusting 17 7.2
2019-Dec-12 03:45 025 7 gusting 17 7.2
2019-Dec-12 03:40 023 8 gusting 15 7.2
2019-Dec-12 03:35 020 7 gusting 14 7.2
2019-Dec-12 03:30 012 7 gusting 17 7.2
2019-Dec-12 03:25 027 6 gusting 13 7.2
2019-Dec-12 03:20 020 9 gusting 17 7.2
2019-Dec-12 03:15 028 9 gusting 17 7.2
2019-Dec-12 03:10 025 7 gusting 17 7.2
2019-Dec-12 03:05 029 8 gusting 19 7.2
2019-Dec-12 03:00 014 9 gusting 17 7.2
2019-Dec-12 02:55 025 6 gusting 13 7.2
2019-Dec-12 02:50 022 10 gusting 17 7.2
2019-Dec-12 02:45 027 7 gusting 13 6.7
2019-Dec-12 02:40 293 5 gusting 10 6.7
2019-Dec-12 02:35 009 7 gusting 15 7.2
2019-Dec-12 02:30 028 6 gusting 13 6.7
2019-Dec-12 02:25 031 9 gusting 14 6.7
2019-Dec-12 02:20 031 6 gusting 13 6.1
2019-Dec-12 02:15 007 5 gusting 13 6.1
2019-Dec-12 02:10 331 11 gusting 17 7.2
2019-Dec-12 02:05 355 7 gusting 17 7.2
2019-Dec-12 02:00 030 7 gusting 15 7.2
2019-Dec-12 01:55 015 7 gusting 17 7.2
2019-Dec-12 01:50 026 11 gusting 19 7.2
2019-Dec-12 01:45 021 9 gusting 17 7.2
2019-Dec-12 01:40 353 12 gusting 19 7.2
2019-Dec-12 01:35 027 8 gusting 17 7.2
2019-Dec-12 01:30 019 9 gusting 15 7.2
2019-Dec-12 01:25 024 7 gusting 17 7.2
2019-Dec-12 01:20 020 9 gusting 14 7.2
2019-Dec-12 01:15 018 6 gusting 14 6.7
2019-Dec-12 01:10 003 6 gusting 14 6.7
2019-Dec-12 01:05 358 8 gusting 13 6.7
2019-Dec-12 01:00 358 8 gusting 14 6.7
2019-Dec-12 00:55 033 11 gusting 17 6.7
2019-Dec-12 00:50 027 11 gusting 19 6.7
2019-Dec-12 00:45 027 9 gusting 15 6.7
2019-Dec-12 00:40 005 10 gusting 17 6.7
2019-Dec-12 00:35 011 11 gusting 17 6.7
2019-Dec-12 00:30 027 10 gusting 17 6.1
2019-Dec-12 00:25 011 12 gusting 17 6.1
2019-Dec-12 00:20 017 13 gusting 24 6.7
2019-Dec-12 00:15 028 10 gusting 15 7.2
2019-Dec-12 00:10 023 8 gusting 15 7.2
2019-Dec-12 00:05 023 8 gusting 14 7.2
2019-Dec-12 00:00 014 9 gusting 18 7.2
2019-Dec-11 23:55 033 10 gusting 17 7.8
2019-Dec-11 23:50 009 11 gusting 19 7.8
2019-Dec-11 23:45 010 11 gusting 18 7.8
2019-Dec-11 23:40 007 7 gusting 13 7.8
2019-Dec-11 23:35 019 10 gusting 18 7.8
2019-Dec-11 23:30 011 6 gusting 13 7.8
2019-Dec-11 23:25 015 8 gusting 11 7.8
2019-Dec-11 23:10 011 6 gusting 13 7.2
2019-Dec-11 23:05 350 6 gusting 12 7.2
2019-Dec-11 23:00 009 11 gusting 15 7.2
2019-Dec-11 22:55 024 8 gusting 19 7.2
2019-Dec-11 22:50 298 8 gusting 14 7.2
2019-Dec-11 22:45 332 9 gusting 19 7.2
2019-Dec-11 22:40 017 8 gusting 18 7.8
2019-Dec-11 22:35 014 8 gusting 17 7.8
2019-Dec-11 22:30 026 10 gusting 17 7.2
2019-Dec-11 22:25 026 8 gusting 14 7.2
2019-Dec-11 22:20 028 8 gusting 19 7.2
2019-Dec-11 22:15 027 11 gusting 18 7.2
2019-Dec-11 22:10 024 6 gusting 19 7.2
2019-Dec-11 22:05 025 8 gusting 15 6.7
2019-Dec-11 22:00 300 7 gusting 12 6.7
2019-Dec-11 21:55 327 4 gusting 10 6.7
2019-Dec-11 21:50 321 6 gusting 15 6.7
2019-Dec-11 21:45 358 7 gusting 19 7.2
2019-Dec-11 21:40 029 11 gusting 22 7.2
2019-Dec-11 21:35 023 11 gusting 17 7.8
2019-Dec-11 21:30 020 11 gusting 17 7.8
2019-Dec-11 21:25 026 8 gusting 17 7.2
2019-Dec-11 21:20 009 9 gusting 17 7.2
2019-Dec-11 21:15 355 6 gusting 13 7.2
2019-Dec-11 21:10 008 6 gusting 13 7.2
2019-Dec-11 21:05 014 8 gusting 18 7.2
2019-Dec-11 21:00 021 16 gusting 26 7.8
2019-Dec-11 20:55 022 10 gusting 18 7.8
2019-Dec-11 20:50 029 9 gusting 18 7.8
2019-Dec-11 20:45 012 10 gusting 18 7.8
2019-Dec-11 20:40 020 7 gusting 15 7.8
2019-Dec-11 20:35 303 7 gusting 19 7.8
2019-Dec-11 20:30 023 9 gusting 19 7.8
2019-Dec-11 20:25 021 8 gusting 17 7.8
2019-Dec-11 20:20 004 10 gusting 17 7.8
2019-Dec-11 20:15 020 11 gusting 17 7.8
2019-Dec-11 20:10 030 13 gusting 24 7.8
2019-Dec-11 20:05 012 6 gusting 17 7.8
2019-Dec-11 20:00 020 9 gusting 15 7.8
2019-Dec-11 19:55 023 9 gusting 20 7.8
2019-Dec-11 19:50 010 10 gusting 18 7.8
2019-Dec-11 19:45 7.8
2019-Dec-11 19:40 310 9 gusting 17 7.8
2019-Dec-11 19:35 015 8 gusting 17 7.8
2019-Dec-11 19:30 015 9 gusting 18 7.8
2019-Dec-11 19:25 005 8 gusting 17 7.8
2019-Dec-11 19:20 355 9 gusting 19 7.8
2019-Dec-11 19:15 007 9 gusting 19 7.8
2019-Dec-11 19:10 013 7 gusting 18 7.8
2019-Dec-11 19:05 019 8 gusting 18 7.8
2019-Dec-11 19:00 027 12 gusting 19 7.8
2019-Dec-11 18:55 022 11 gusting 20 7.8
2019-Dec-11 18:50 022 11 gusting 20 7.8
2019-Dec-11 18:45 014 9 gusting 15 7.2
2019-Dec-11 18:40 023 10 gusting 17 7.2
2019-Dec-11 18:35 281 10 gusting 19 7.2
2019-Dec-11 18:30 017 7 gusting 17 6.7
2019-Dec-11 18:25 008 7 gusting 13 6.7
2019-Dec-11 18:20 354 6 gusting 17 6.1
2019-Dec-11 18:15 011 11 gusting 22 6.7
2019-Dec-11 18:10 023 11 gusting 19 7.8
2019-Dec-11 18:05 020 8 gusting 15 7.8
2019-Dec-11 18:00 341 8 gusting 17 7.8
2019-Dec-11 17:55 026 9 gusting 19 7.8
2019-Dec-11 17:50 021 8 gusting 17 7.8
2019-Dec-11 17:45 345 6 gusting 14 7.8
2019-Dec-11 17:40 323 10 gusting 17 7.8
2019-Dec-11 17:35 013 7 gusting 15 7.8
2019-Dec-11 17:30 023 10 gusting 18 7.8
2019-Dec-11 17:25 354 10 gusting 18 7.8
2019-Dec-11 17:20 024 10 gusting 17 7.8
2019-Dec-11 17:15 356 8 gusting 14 7.8
2019-Dec-11 17:10 005 10 gusting 18 7.8
2019-Dec-11 17:05 019 12 gusting 22 7.8
2019-Dec-11 17:00 349 10 gusting 18 7.8
2019-Dec-11 16:55 021 12 gusting 22 7.8
2019-Dec-11 16:50 358 12 gusting 19 7.8
2019-Dec-11 16:45 002 10 gusting 17 7.8
2019-Dec-11 16:40 018 7 gusting 17 7.8
2019-Dec-11 16:35 016 7 gusting 14 7.8
2019-Dec-11 16:30 343 6 gusting 17 7.8
2019-Dec-11 16:25 329 11 gusting 19 7.8
2019-Dec-11 16:20 356 10 gusting 18 7.8
2019-Dec-11 16:15 019 10 gusting 17 7.8
2019-Dec-11 16:10 352 6 gusting 14 7.8
2019-Dec-11 16:05 326 4 gusting 13 7.2
2019-Dec-11 16:00 008 7 gusting 14 7.2
2019-Dec-11 15:55 268 6 gusting 14 7.2
2019-Dec-11 15:50 028 7 gusting 17 7.2
2019-Dec-11 15:45 010 8 gusting 17 7.2
2019-Dec-11 15:40 358 10 gusting 15 7.2
2019-Dec-11 15:35 022 10 gusting 19 7.2
2019-Dec-11 15:30 011 10 gusting 18 7.2
2019-Dec-11 15:25 325 7 gusting 15 6.7
2019-Dec-11 15:20 338 7 gusting 15 6.1
2019-Dec-11 15:15 267 2 gusting 6 6.1
2019-Dec-11 15:10 296 1 gusting 5 6.1
2019-Dec-11 15:05 291 0 gusting 6 6.1
2019-Dec-11 15:00 297 4 gusting 12 6.1
2019-Dec-11 14:55 310 2 gusting 10 6.7
2019-Dec-11 14:50 316 4 gusting 10 6.7
2019-Dec-11 14:45 294 4 gusting 11 6.7
2019-Dec-11 14:40 008 8 gusting 19 6.7
2019-Dec-11 14:35 293 6 gusting 13 7.2
2019-Dec-11 14:30 001 4 gusting 11 7.2
2019-Dec-11 14:25 284 2 gusting 7 7.2
2019-Dec-11 14:20 273 2 gusting 7 7.8
2019-Dec-11 14:15 321 4 gusting 12 7.8
2019-Dec-11 14:10 330 7 gusting 15 7.8
2019-Dec-11 14:05 025 8 gusting 17 7.8
2019-Dec-11 14:00 278 8 gusting 19 7.2
2019-Dec-11 13:55 305 9 gusting 19 7.8
2019-Dec-11 13:50 025 10 gusting 19 7.8
2019-Dec-11 13:45 018 10 gusting 19 7.8
2019-Dec-11 13:40 299 10 gusting 18 7.8
2019-Dec-11 13:35 017 9 gusting 17 7.8
2019-Dec-11 13:30 011 8 gusting 17 7.8
2019-Dec-11 13:25 003 4 gusting 14 7.8
2019-Dec-11 13:20 315 2 gusting 13 8.3
2019-Dec-11 13:15 327 7 gusting 17 8.3
2019-Dec-11 13:10 353 11 gusting 17 8.3
2019-Dec-11 13:05 341 7 gusting 14 8.3
2019-Dec-11 13:00 324 6 gusting 13 8.3
2019-Dec-11 12:55 315 7 gusting 18 8.3
2019-Dec-11 12:50 306 6 gusting 17 8.3
2019-Dec-11 12:45 345 8 gusting 17 8.3
2019-Dec-11 12:40 353 6 gusting 14 8.3
2019-Dec-11 12:35 318 10 gusting 15 8.3
2019-Dec-11 12:30 015 9 gusting 19 8.3
2019-Dec-11 12:25 274 10 gusting 18 8.3
2019-Dec-11 12:20 004 8 gusting 19 7.8
2019-Dec-11 12:15 264 4 gusting 10 7.2
2019-Dec-11 12:10 295 4 gusting 12 7.2
2019-Dec-11 12:05 325 5 gusting 10 7.2
2019-Dec-11 12:00 298 5 gusting 11 7.2
2019-Dec-11 11:55 309 6 gusting 15 7.2
2019-Dec-11 11:50 289 7 gusting 15 7.8
2019-Dec-11 11:45 356 11 gusting 21 7.2
2019-Dec-11 11:40 345 8 gusting 17 7.2
2019-Dec-11 11:35 334 4 gusting 11 6.7
2019-Dec-11 11:30 316 6 gusting 13 6.7
2019-Dec-11 11:25 6.7
2019-Dec-11 11:20 014 14 gusting 22 7.2
2019-Dec-11 11:15 354 6 gusting 14 7.2
2019-Dec-11 11:10 356 8 gusting 15 7.2
2019-Dec-11 11:05 006 10 gusting 18 7.2
2019-Dec-11 11:00 355 11 gusting 19 7.8
2019-Dec-11 10:55 015 13 gusting 22 7.8
2019-Dec-11 10:50 352 8 gusting 18 8.3
2019-Dec-11 10:45 331 10 gusting 17 8.3
2019-Dec-11 10:40 338 7 gusting 14 8.3
2019-Dec-11 10:35 307 6 gusting 17 8.3
2019-Dec-11 10:30 345 7 gusting 19 8.3
2019-Dec-11 10:25 015 10 gusting 19 8.3
2019-Dec-11 10:20 334 8 gusting 17 8.3
2019-Dec-11 10:15 010 10 gusting 17 8.3
2019-Dec-11 10:10 345 13 gusting 19 7.8
2019-Dec-11 10:05 302 10 gusting 17 7.8
2019-Dec-11 10:00 271 8 gusting 14 7.8
2019-Dec-11 09:55 270 8 gusting 15 7.8
2019-Dec-11 09:50 303 3 gusting 10 7.8
2019-Dec-11 09:45 295 3 gusting 10 7.8
2019-Dec-11 09:40 225 4 gusting 10 7.8
2019-Dec-11 09:35 319 5 gusting 13 8.3
2019-Dec-11 09:30 338 5 gusting 15 8.3
2019-Dec-11 09:25 303 7 gusting 15 7.8
2019-Dec-11 09:20 009 6 gusting 11 7.8
2019-Dec-11 09:15 284 4 gusting 11 7.8
2019-Dec-11 09:10 290 2 gusting 10 7.8
2019-Dec-11 09:05 299 4 gusting 11 7.8
2019-Dec-11 09:00 292 2 gusting 8 7.8
2019-Dec-11 08:55 302 2 gusting 6 7.8
2019-Dec-11 08:50 319 7 gusting 17 7.8
2019-Dec-11 08:45 342 7 gusting 17 7.8
2019-Dec-11 08:40 243 6 gusting 12 7.2
2019-Dec-11 08:35 014 6 gusting 11 7.2
2019-Dec-11 08:30 327 6 gusting 11 7.2
2019-Dec-11 08:25 296 6 gusting 14 7.2
2019-Dec-11 08:20 297 6 gusting 19 7.2
2019-Dec-11 08:15 328 8 gusting 13 7.8
2019-Dec-11 08:10 285 8 gusting 19 7.8
2019-Dec-11 08:05 287 7 gusting 14 7.8
2019-Dec-11 08:00 300 5 gusting 14 7.8
2019-Dec-11 07:55 296 5 gusting 15 7.8
2019-Dec-11 07:50 301 6 gusting 15 7.8
2019-Dec-11 07:45 332 4 gusting 10 7.8
2019-Dec-11 07:40 288 5 gusting 14 7.2
2019-Dec-11 07:35 276 4 gusting 10 7.2
2019-Dec-11 07:30 295 3 gusting 7 6.7
2019-Dec-11 07:25 273 2 gusting 7 6.7
2019-Dec-11 07:20 326 3 gusting 10 6.7
2019-Dec-11 07:15 291 4 gusting 11 6.7
2019-Dec-11 07:10 318 6 gusting 15 6.7
2019-Dec-11 07:05 281 5 gusting 12 7.2
2019-Dec-11 07:00 018 9 gusting 17 7.2
2019-Dec-11 06:55 358 8 gusting 19 7.8
2019-Dec-11 06:50 288 5 gusting 13 7.8
2019-Dec-11 06:45 292 3 gusting 11 7.8
2019-Dec-11 06:40 321 3 gusting 10 7.8
2019-Dec-11 06:35 304 2 gusting 12 7.2
2019-Dec-11 06:30 285 4 gusting 10 7.8
2019-Dec-11 06:25 004 2 gusting 8 7.8
2019-Dec-11 06:20 291 2 gusting 12 7.8
2019-Dec-11 06:15 345 4 gusting 11 7.8
2019-Dec-11 06:10 348 4 gusting 10 7.8
2019-Dec-11 06:05 331 2 gusting 10 7.8
2019-Dec-11 06:00 296 2 gusting 10 7.8
2019-Dec-11 05:55 323 4 gusting 10 7.8
2019-Dec-11 05:50 305 2 gusting 12 7.8
2019-Dec-11 05:45 313 6 gusting 13 7.8
2019-Dec-11 05:40 284 2 gusting 13 7.8
2019-Dec-11 05:35 301 5 gusting 12 7.8
2019-Dec-11 05:30 298 3 gusting 13 7.8
2019-Dec-11 05:25 305 4 gusting 15 7.8
2019-Dec-11 05:20 339 6 gusting 13 7.8
2019-Dec-11 05:15 313 8 gusting 19 7.8
2019-Dec-11 05:10 310 6 gusting 14 7.2
2019-Dec-11 05:05 300 6 gusting 15 7.2
2019-Dec-11 05:00 288 5 gusting 13 7.2
2019-Dec-11 04:55 291 5 gusting 15 7.2
2019-Dec-11 04:50 307 2 gusting 10 7.2
2019-Dec-11 04:45 309 4 gusting 14 7.2
2019-Dec-11 04:40 313 2 gusting 8 6.7
2019-Dec-11 04:35 294 1 gusting 7 6.7
2019-Dec-11 04:30 299 1 gusting 6 6.7
2019-Dec-11 04:25 261 1 gusting 10 6.7
2019-Dec-11 04:20 349 1 gusting 6 6.7
2019-Dec-11 04:15 315 1 gusting 6 6.7
2019-Dec-11 04:10 300 2 gusting 6 6.7
2019-Dec-11 04:05 297 1 gusting 6 6.7
2019-Dec-11 04:00 321 4 gusting 8 6.7
2019-Dec-11 03:55 313 4 gusting 8 6.7
2019-Dec-11 03:50 304 4 gusting 10 6.7
2019-Dec-11 03:45 311 2 gusting 12 6.7
2019-Dec-11 03:40 331 4 gusting 13 6.7
2019-Dec-11 03:35 306 4 gusting 10 7.2
2019-Dec-11 03:30 310 6 gusting 13 7.2
2019-Dec-11 03:25 335 4 gusting 12 7.2
2019-Dec-11 03:20 274 5 gusting 12 7.2
2019-Dec-11 03:15 307 10 gusting 20 7.8
2019-Dec-11 03:10 302 7 gusting 18 7.8
2019-Dec-11 03:05 285 6 gusting 17 7.8
2019-Dec-11 03:00 324 8 gusting 19 7.8
2019-Dec-11 02:55 283 8 gusting 24 7.8
2019-Dec-11 02:50 300 10 gusting 21 8.3
2019-Dec-11 02:45 325 7 gusting 15 7.8
2019-Dec-11 02:40 301 9 gusting 21 7.8
2019-Dec-11 02:35 281 6 gusting 17 7.8
2019-Dec-11 02:30 296 6 gusting 17 7.8
2019-Dec-11 02:25 292 8 gusting 19 7.8
2019-Dec-11 02:20 301 10 gusting 24 7.8
2019-Dec-11 02:15 291 9 gusting 24 8.3
2019-Dec-11 02:10 305 7 gusting 18 8.3
2019-Dec-11 02:05 277 5 gusting 13 8.3
2019-Dec-11 02:00 347 4 gusting 13 8.3
2019-Dec-11 01:55 330 5 gusting 17 8.3
2019-Dec-11 01:50 297 5 gusting 13 8.9
2019-Dec-11 01:45 315 6 gusting 18 8.9
2019-Dec-11 01:40 330 6 gusting 18 8.9
2019-Dec-11 01:35 332 9 gusting 20 9.4
2019-Dec-11 01:30 004 12 gusting 27 9.4
2019-Dec-11 01:25 338 17 gusting 26 9.4
2019-Dec-11 01:20 018 15 gusting 30 9.4
2019-Dec-11 01:15 018 19 gusting 37 9.4
2019-Dec-11 01:10 006 15 gusting 34 9.4
2019-Dec-11 01:05 021 19 gusting 37 9.4
2019-Dec-11 01:00 030 20 gusting 37 9.4
2019-Dec-11 00:55 028 22 gusting 33 8.9
2019-Dec-11 00:50 001 25 gusting 38 8.9
2019-Dec-11 00:45 027 21 gusting 34 8.9
2019-Dec-11 00:40 031 20 gusting 32 8.9
2019-Dec-11 00:35 027 24 gusting 39 8.9
2019-Dec-11 00:30 034 24 gusting 39 8.9
2019-Dec-11 00:25 008 24 gusting 41 8.9
2019-Dec-11 00:20 028 24 gusting 37 8.9
2019-Dec-11 00:15 011 22 gusting 41 8.9
2019-Dec-11 00:10 030 27 gusting 50 8.9
2019-Dec-11 00:05 029 19 gusting 39 8.9
2019-Dec-11 00:00 030 22 gusting 41 8.9
2019-Dec-10 23:55 030 24 gusting 42 8.9
2019-Dec-10 23:50 030 25 gusting 42 8.9
2019-Dec-10 23:45 032 25 gusting 39 8.3
2019-Dec-10 23:40 028 25 gusting 37 8.3
2019-Dec-10 23:35 028 23 gusting 39 8.3
2019-Dec-10 23:30 026 25 gusting 37 8.3
2019-Dec-10 23:25 136 25 gusting 42 8.3
2019-Dec-10 23:20 188 25 gusting 38 8.3
2019-Dec-10 23:15 179 25 gusting 38 8.3
2019-Dec-10 23:10 029 22 gusting 37 8.3
2019-Dec-10 23:05 036 25 gusting 45 8.3
2019-Dec-10 23:00 033 28 gusting 39 8.3
2019-Dec-10 22:55 023 25 gusting 42 8.3
2019-Dec-10 22:50 030 25 gusting 38 8.3
2019-Dec-10 22:45 034 22 gusting 39 8.3
2019-Dec-10 22:40 029 25 gusting 40 8.3
2019-Dec-10 22:35 030 21 gusting 40 8.3
2019-Dec-10 22:30 033 20 gusting 39 8.3
2019-Dec-10 22:25 030 23 gusting 37 8.3
2019-Dec-10 22:20 031 24 gusting 39 8.3
2019-Dec-10 22:15 032 25 gusting 40 8.3
2019-Dec-10 22:10 029 24 gusting 40 8.3
2019-Dec-10 22:05 039 25 gusting 39 7.8
2019-Dec-10 22:00 030 19 gusting 34 7.8
2019-Dec-10 21:55 349 23 gusting 39 7.8
2019-Dec-10 21:50 026 22 gusting 38 7.8
2019-Dec-10 21:45 035 22 gusting 37 7.8
2019-Dec-10 21:40 023 23 gusting 37 7.8
2019-Dec-10 21:35 036 23 gusting 40 7.8
2019-Dec-10 21:30 026 22 gusting 32 7.8
2019-Dec-10 21:25 097 20 gusting 33 7.8
2019-Dec-10 21:20 031 22 gusting 37 7.8
2019-Dec-10 21:15 028 19 gusting 37 7.8
2019-Dec-10 21:10 275 24 gusting 39 7.8
2019-Dec-10 21:05 029 25 gusting 41 7.8
2019-Dec-10 21:00 031 21 gusting 40 7.8
2019-Dec-10 20:55 033 18 gusting 33 7.8
2019-Dec-10 20:50 196 19 gusting 37 7.8
2019-Dec-10 20:45 109 22 gusting 38 7.8
2019-Dec-10 20:40 025 24 gusting 38 7.8
2019-Dec-10 20:35 027 26 gusting 42 7.8
2019-Dec-10 20:30 221 24 gusting 39 7.8
2019-Dec-10 20:25 033 24 gusting 37 7.8
2019-Dec-10 20:20 017 22 gusting 37 7.2
2019-Dec-10 20:15 030 19 gusting 35 7.2
2019-Dec-10 20:10 030 20 gusting 37 7.2
2019-Dec-10 20:05 026 20 gusting 35 7.2
2019-Dec-10 20:00 027 19 gusting 35 7.2
2019-Dec-10 19:55 030 23 gusting 37 7.2
2019-Dec-10 19:50 033 22 gusting 37 7.2
2019-Dec-10 19:45 033 15 gusting 37 7.2
2019-Dec-10 19:40 032 25 gusting 44 7.2
2019-Dec-10 19:35 027 20 gusting 34 7.2
2019-Dec-10 19:30 030 22 gusting 35 7.2
2019-Dec-10 19:25 030 21 gusting 40 7.2
2019-Dec-10 19:20 044 19 gusting 33 7.8
2019-Dec-10 19:15 037 15 gusting 26 7.8
2019-Dec-10 19:10 031 18 gusting 30 7.2
2019-Dec-10 19:05 044 18 gusting 30 7.2
2019-Dec-10 19:00 031 18 gusting 30 7.2
2019-Dec-10 18:55 029 19 gusting 38 7.2
2019-Dec-10 18:50 038 19 gusting 32 7.2
2019-Dec-10 18:45 033 21 gusting 32 7.2
2019-Dec-10 18:40 073 16 gusting 34 7.2
2019-Dec-10 18:35 070 15 gusting 31 7.2
2019-Dec-10 18:30 038 22 gusting 30 7.2
2019-Dec-10 18:25 039 19 gusting 30 7.2
2019-Dec-10 18:20 033 21 gusting 34 7.2
2019-Dec-10 18:15 053 18 gusting 34 7.2
2019-Dec-10 18:10 127 21 gusting 37 7.2
2019-Dec-10 18:05 030 19 gusting 30 7.2
2019-Dec-10 18:00 197 21 gusting 37 7.2